Change the Weather History Date:

Friday, January 4, 2013

  Actual Average Record
Temperature  
Mean Temperature 44 °F -  
Max Temperature 53 °F 66 °F 73 °F (2005)
Min Temperature 35 °F 48 °F 35 °F (2013)
Degree Days  
Heating Degree Days 21    
Moisture  
Dew Point 44 °F    
Average Humidity 94    
Maximum Humidity 100    
Minimum Humidity 76    
Precipitation  
Precipitation 0.00 in - - ()
Sea Level Pressure  
Sea Level Pressure 30.02 in    
Wind  
Wind Speed 3 mph ()    
Max Wind Speed 7 mph    
Max Gust Speed -    
Visibility 0.4 miles    
Events Fog    
Averages and records for this station are not official NWS values.
T = Trace of Precipitation, MM = Missing Value Source: Averaged Metar Reports

Daily Weather History Graph

Daily Weather History Graph

Search for Another Location

Airport or City:

Trip Planner

Search our weather history database for the weather conditions in past years. The results will help you decide how hot, cold, wet, or windy it might be!

Date:

Astronomy

Jan. 04, 2013 Rise Set
Actual Time 6:55 AM IST 5:26 PM IST
Civil Twilight 6:30 AM IST 5:52 PM IST
Nautical Twilight 6:01 AM IST 6:21 PM IST
Astronomical Twilight 5:33 AM IST 6:49 PM IST
Moon 11:53 PM IST (1/4) 11:03 AM IST (1/4)
Length of Visible Light 11h 21m
Length of Day
10h 31m
Waning Gibbous, 60% of the Moon is Illuminated
Jan 4
Waning Gibbous
Jan 5
Last Quarter
Jan 12
New
Jan 19
First Quarter
Jan 27
Full

Hourly Weather History & Observations

Time (IST) Temp. Windchill Dew Point Humidity Pressure Visibility Wind Dir Wind Speed Gust Speed Precip Events Conditions
1:00 AM 39.2 °F - 39.2 °F 100% 30.01 in - Variable 2.3 mph - N/A Fog Fog
2:00 AM 41.0 °F - 41.0 °F 100% 30.01 in - Variable 2.3 mph - N/A Fog Fog
2:30 AM 40 °F - 40 °F 100% 30.04 in 0 mi West 3.5 mph - - Fog Heavy Fog
3:00 AM 41.0 °F 39.0 °F 41.0 °F 100% 30.01 in - West 3.5 mph - N/A Fog Fog
4:00 AM 41.0 °F 38.0 °F 41.0 °F 100% 30.01 in - West 4.6 mph - N/A Fog Fog
5:30 AM - - - N/A% 30.01 in - West 5.8 mph - N/A Fog Fog
6:00 AM 41.0 °F 36.4 °F 41.0 °F 100% 30.01 in - West 6.9 mph - N/A Fog Fog
6:30 AM 42.8 °F 39.3 °F 42.8 °F 100% 30.01 in - West 5.8 mph - N/A Fog Fog
7:00 AM 42.8 °F 39.3 °F 42.8 °F 100% 30.04 in 0.0 mi West 5.8 mph - N/A Fog Fog
7:30 AM 42.8 °F 39.3 °F 42.8 °F 100% 30.04 in 0.0 mi West 5.8 mph - N/A Fog Fog
8:30 AM 43 °F - 42 °F 97% 30.11 in 0 mi WNW 4.6 mph - - Fog Heavy Fog
8:30 AM 42.8 °F 40.1 °F 42.8 °F 100% 30.06 in 0.0 mi WNW 4.6 mph - N/A Fog Fog
9:00 AM 44.6 °F 42.2 °F 44.6 °F 100% 30.06 in 0.0 mi WNW 4.6 mph - N/A Fog Fog
10:30 AM 44.6 °F 43.1 °F 44.6 °F 100% 30.09 in 0.1 mi West 3.5 mph - N/A Fog Fog
11:00 AM 46.4 °F 45.2 °F 44.6 °F 93% 30.09 in 0.1 mi West 3.5 mph - N/A Fog Fog
11:30 AM 46 °F - 46 °F 100% 30.12 in 0 mi WNW 4.6 mph - - Fog Heavy Fog
12:00 PM 46.4 °F 45.2 °F 46.4 °F 100% 30.04 in 0.3 mi NW 3.5 mph - N/A Fog Fog
1:00 PM 48.2 °F - 48.2 °F 100% 30.04 in 0.5 mi Variable 2.3 mph - N/A Fog Fog
1:30 PM 48.2 °F - 48.2 °F 100% 30.01 in 0.6 mi West 3.5 mph - N/A Fog Fog
2:00 PM 48.2 °F - 48.2 °F 100% 30.01 in 0.6 mi WNW 3.5 mph - N/A Fog Fog
2:30 PM 50 °F - 48 °F 89% 30.03 in 1 mi SSW 3.5 mph - - Fog Patches of Fog
2:30 PM 50.0 °F - 48.2 °F 94% 30.01 in 0.6 mi SSW 3.5 mph - N/A Fog Shallow Fog
3:00 PM 50.0 °F - 48.2 °F 94% 29.98 in 0.6 mi North 4.6 mph - N/A   Scattered Clouds
3:30 PM 51.8 °F - 44.6 °F 76% 29.98 in 0.7 mi WNW 3.5 mph - N/A   Mostly Cloudy
4:00 PM 51.8 °F - 44.6 °F 76% 29.98 in 0.9 mi NW 3.5 mph - N/A   Mostly Cloudy
4:30 PM 51.8 °F - 44.6 °F 76% 29.95 in 0.9 mi NW 3.5 mph - N/A   Scattered Clouds
5:00 PM 51.8 °F - 44.6 °F 76% 29.95 in 0.9 mi NW 3.5 mph - N/A   Mostly Cloudy
5:30 PM 51 °F - 46 °F 78% 29.99 in 1 mi 2.3 mph - -   Mist
5:30 PM 51.8 °F - 46.4 °F 82% 29.95 in 0.8 mi Variable 2.3 mph - N/A   Mostly Cloudy
6:00 PM 50.0 °F - 46.4 °F 87% 29.95 in 0.7 mi NW 3.5 mph - N/A   Mostly Cloudy
8:00 PM 46.4 °F - 44.6 °F 93% 29.98 in 0.2 mi Variable 2.3 mph - N/A Fog Fog
8:30 PM 46 °F - 45 °F 94% 30.02 in 0 mi 2.3 mph - - Fog Partial Fog
8:30 PM 46.4 °F - 44.6 °F 93% 29.98 in 0.2 mi Calm Calm - N/A Fog Fog
9:00 PM 46.4 °F - 44.6 °F 93% 29.98 in 0.1 mi Variable 2.3 mph - N/A Fog Fog
9:30 PM 46.4 °F - 44.6 °F 93% 30.01 in 0.1 mi Variable 2.3 mph - N/A Fog Fog
10:00 PM 44.6 °F - 42.8 °F 93% 30.01 in 0.1 mi Variable 2.3 mph - N/A Fog Fog
11:00 PM 44.6 °F - 42.8 °F 93% 30.01 in 0.1 mi Variable 2.3 mph - N/A Fog Fog